| time (UTC) | temp C | wind direction | speed KPH | gust KPH | rain 1hr cm | rain 24hr cm | rain mn cm | humidity % | barometer mb |
| 20260504130806 | -17 | 0 | 0.0 | 0.0 | 0.00 | 0.00 | 0.00 | 99 | 751.0 |
| 20260504100428 | -17 | 0 | 0.0 | 0.0 | 0.00 | 0.00 | 0.00 | 85 | 740.0 |
| 20260504050438 | -17 | 0 | 0.0 | 0.0 | 0.00 | 0.00 | 0.00 | 67 | 737.0 |
| 20260504045415 | -17 | 0 | 0.0 | 0.0 | 0.00 | 0.00 | 0.00 | 72 | 737.0 |
| 20260504044354 | -17 | 0 | 0.0 | 0.0 | 0.00 | 0.00 | 0.00 | 77 | 737.0 |
| 20260504043332 | -17 | 0 | 0.0 | 0.0 | 0.00 | 0.00 | 0.00 | 76 | 737.0 |
| 20260504042309 | -17 | 0 | 0.0 | 0.0 | 0.00 | 0.00 | 0.00 | 78 | 737.0 |
| 20260504041252 | -17 | 0 | 0.0 | 0.0 | 0.00 | 0.00 | 0.00 | 77 | 738.0 |
| 20260504040225 | -17 | 0 | 0.0 | 0.0 | 0.00 | 0.00 | 0.00 | 78 | 738.0 |
| 20260504035203 | -17 | 0 | 0.0 | 0.0 | 0.00 | 0.00 | 0.00 | 81 | 739.0 |
| 20260504034141 | -17 | 0 | 0.0 | 0.0 | 0.00 | 0.00 | 0.00 | 83 | 739.0 |
| 20260504033119 | -17 | 0 | 0.0 | 0.0 | 0.00 | 0.00 | 0.00 | 87 | 739.0 |
| 20260504032057 | -17 | 0 | 0.0 | 0.0 | 0.00 | 0.00 | 0.00 | 92 | 741.0 |
| 20260504031035 | -17 | 0 | 0.0 | 0.0 | 0.00 | 0.00 | 0.00 | 91 | 740.0 |
| 20260504030013 | -17 | 0 | 0.0 | 0.0 | 0.00 | 0.00 | 0.00 | 90 | 741.0 |
| 20260504024953 | -17 | 0 | 0.0 | 0.0 | 0.00 | 0.00 | 0.00 | 92 | 742.0 |
| 20260504024220 | -17 | 0 | 0.0 | 0.0 | 0.00 | 0.00 | 0.00 | 93 | 742.0 |
| 20260504020903 | -17 | 0 | 0.0 | 0.0 | 0.00 | 0.00 | 0.00 | 99 | 745.0 |
| 20260504015849 | -17 | 0 | 0.0 | 0.0 | 0.00 | 0.00 | 0.00 | 99 | 746.0 |
| 20260504014843 | -17 | 0 | 0.0 | 0.0 | 0.00 | 0.00 | 0.00 | 99 | 747.0 |
| 20260504013757 | -17 | 0 | 0.0 | 0.0 | 0.00 | 0.00 | 0.00 | 99 | 747.0 |
| 20260504012210 | -17 | 0 | 0.0 | 0.0 | 0.00 | 0.00 | 0.00 | 99 | 748.0 |
| 20260504004442 | -17 | 0 | 0.0 | 0.0 | 0.00 | 0.00 | 0.00 | 99 | 748.0 |
| 20260504003415 | -17 | 0 | 0.0 | 0.0 | 0.00 | 0.00 | 0.00 | 99 | 749.0 |
| 20260504002354 | -17 | 0 | 0.0 | 0.0 | 0.00 | 0.00 | 0.00 | 99 | 749.0 |
| 20260504001331 | -17 | 0 | 0.0 | 0.0 | 0.00 | 0.00 | 0.00 | 99 | 749.0 |
| 20260504000309 | -17 | 0 | 0.0 | 0.0 | 0.00 | 0.00 | 0.00 | 99 | 749.0 |
| 20260503235248 | -17 | 0 | 0.0 | 0.0 | 0.00 | 0.00 | 0.00 | 99 | 749.0 |
| 20260503234226 | -17 | 0 | 0.0 | 0.0 | 0.00 | 0.00 | 0.00 | 99 | 749.0 |
| 20260503233202 | -17 | 0 | 0.0 | 0.0 | 0.00 | 0.00 | 0.00 | 99 | 749.0 |
| 20260503232140 | -17 | 0 | 0.0 | 0.0 | 0.00 | 0.00 | 0.00 | 99 | 750.0 |
| 20260503231118 | -17 | 0 | 0.0 | 0.0 | 0.00 | 0.00 | 0.00 | 99 | 749.0 |
| 20260503230056 | -17 | 0 | 0.0 | 0.0 | 0.00 | 0.00 | 0.00 | 99 | 749.0 |
| 20260503225034 | -17 | 0 | 0.0 | 0.0 | 0.00 | 0.00 | 0.00 | 99 | 749.0 |
| 20260503224012 | -17 | 0 | 0.0 | 0.0 | 0.00 | 0.00 | 0.00 | 99 | 749.0 |
| 20260503222950 | -17 | 0 | 0.0 | 0.0 | 0.00 | 0.00 | 0.00 | 99 | 749.0 |
| 20260503221928 | -17 | 0 | 0.0 | 0.0 | 0.00 | 0.00 | 0.00 | 99 | 749.0 |
| 20260503220906 | -17 | 0 | 0.0 | 0.0 | 0.00 | 0.00 | 0.00 | 99 | 748.0 |
| 20260503215844 | -17 | 0 | 0.0 | 0.0 | 0.00 | 0.00 | 0.00 | 99 | 748.0 |
| 20260503214822 | -17 | 0 | 0.0 | 0.0 | 0.00 | 0.00 | 0.00 | 99 | 748.0 |
| 20260503213800 | -17 | 0 | 0.0 | 0.0 | 0.00 | 0.00 | 0.00 | 99 | 748.0 |
| 20260503212738 | -17 | 0 | 0.0 | 0.0 | 0.00 | 0.00 | 0.00 | 99 | 748.0 |
| 20260503211717 | -17 | 0 | 0.0 | 0.0 | 0.00 | 0.00 | 0.00 | 99 | 748.0 |
| 20260503210653 | -17 | 0 | 0.0 | 0.0 | 0.00 | 0.00 | 0.00 | 99 | 748.0 |
| 20260503205631 | -17 | 0 | 0.0 | 0.0 | 0.00 | 0.00 | 0.00 | 99 | 748.0 |
| 20260503204609 | -17 | 0 | 0.0 | 0.0 | 0.00 | 0.00 | 0.00 | 99 | 747.0 |
| 20260503203547 | -17 | 0 | 0.0 | 0.0 | 0.00 | 0.00 | 0.00 | 99 | 747.0 |
| 20260503202525 | -17 | 0 | 0.0 | 0.0 | 0.00 | 0.00 | 0.00 | 99 | 747.0 |
| 20260503201503 | -17 | 0 | 0.0 | 0.0 | 0.00 | 0.00 | 0.00 | 99 | 747.0 |
| 20260503200441 | -17 | 0 | 0.0 | 0.0 | 0.00 | 0.00 | 0.00 | 99 | 747.0 |
| 20260503195419 | -17 | 0 | 0.0 | 0.0 | 0.00 | 0.00 | 0.00 | 99 | 747.0 |
| 20260503194357 | -17 | 0 | 0.0 | 0.0 | 0.00 | 0.00 | 0.00 | 99 | 747.0 |
| 20260503193335 | -17 | 0 | 0.0 | 0.0 | 0.00 | 0.00 | 0.00 | 99 | 747.0 |
| 20260503192313 | -17 | 0 | 0.0 | 0.0 | 0.00 | 0.00 | 0.00 | 99 | 747.0 |
| 20260503191252 | -17 | 0 | 0.0 | 0.0 | 0.00 | 0.00 | 0.00 | 99 | 747.0 |
| 20260503190229 | -17 | 0 | 0.0 | 0.0 | 0.00 | 0.00 | 0.00 | 99 | 747.0 |
| 20260503185207 | -17 | 0 | 0.0 | 0.0 | 0.00 | 0.00 | 0.00 | 99 | 747.0 |
| 20260503184144 | -17 | 0 | 0.0 | 0.0 | 0.00 | 0.00 | 0.00 | 99 | 746.0 |
| 20260503183122 | -17 | 0 | 0.0 | 0.0 | 0.00 | 0.00 | 0.00 | 99 | 747.0 |
| 20260503182100 | -17 | 0 | 0.0 | 0.0 | 0.00 | 0.00 | 0.00 | 99 | 747.0 |
| 20260503181038 | -17 | 0 | 0.0 | 0.0 | 0.00 | 0.00 | 0.00 | 99 | 747.0 |
| 20260503180016 | -17 | 0 | 0.0 | 0.0 | 0.00 | 0.00 | 0.00 | 99 | 747.0 |
| 20260503174954 | -17 | 0 | 0.0 | 0.0 | 0.00 | 0.00 | 0.00 | 99 | 747.0 |
| 20260503173932 | -17 | 0 | 0.0 | 0.0 | 0.00 | 0.00 | 0.00 | 99 | 747.0 |
| 20260503172910 | -17 | 0 | 0.0 | 0.0 | 0.00 | 0.00 | 0.00 | 99 | 747.0 |
| 20260503171848 | -17 | 0 | 0.0 | 0.0 | 0.00 | 0.00 | 0.00 | 99 | 747.0 |
| 20260503170826 | -17 | 0 | 0.0 | 0.0 | 0.00 | 0.00 | 0.00 | 99 | 747.0 |
| 20260503150402 | -17 | 0 | 0.0 | 0.0 | 0.00 | 0.00 | 0.00 | 99 | 745.0 |
| 20260503140149 | -17 | 0 | 0.0 | 0.0 | 0.00 | 0.00 | 0.00 | 96 | 743.0 |